Terminal Aerodrome Forecast
Issued by NWS Charleston, WV

Current Version | Previous Version | Graphics & Text | Print | Product List | Glossary On
Versions: 1 2 3 4 5 6 7 8 9 10 11 12 13 14 15 16 17 18 19 20 21 22 23 24 25 26 27
000
FTUS41 KRLX 250800 AAA
TAFPKB
TAF AMD
KPKB 250829Z 2508/2606 10004KT P6SM -RA BKN080
     FM250900 17008KT P6SM OVC060
     FM251600 21010G18KT P6SM VCSH BKN035
     FM251900 22005KT P6SM BKN045=

USA.gov is the U.S. government's official web portal to all federal, state and local government web resources and services.